Observation Tools

Green ash Photo courtesy of Patrick Breen, Oregon State University, oregonstate.edu/dept/ldplants.

Green ash (Fraxinus pennsylvanica)


Plant Family: Olive (Oleaceae)
Project BudBurst Plant Group: Deciduous Trees and Shrubs

Identification Hints: Green ash trees are common throughout the eastern United States. They are very common street trees that can growup to 80 feet tall. The green leaves are "pinnately compound," in this case meaning that the "leaf" consists of 7-9 leaflets (3-4 sets of leaflet pairs along the stem and one leaflet at the end). Green ash flowers and leaves appear at roughly the same time during the spring and the flowers areinconspicuous, so look closely!

Did you Know? Green ash trees are wind pollinated. The male and female flowers occur on separate trees and the male flowers emerge before female flowers. Also, Green ash seeds require "cold stratification" in order to germinate, meaning that they must overwinter under cold temperatures or they won't germinate in the spring. In recent years, the Emerald ash borer, an invasive insect in the United States accidentally introduced in the 1990's, has become a threat to many types of ash trees.


Live Map for Green ash

Other years available for viewing:

Below you can view all observations that have been reported in for Green ash (If the map below is empty then there have not been any observations reported.)

Use the navigation buttons on the left to zoom in/out and pan around. Click on each place marker to get detail information about that observation.

Leaf/Needles/Stalk = Leaf/Needles/Stalk Flower = Flower Pollen = Pollen Fruiting = Fruiting Color = Color

--Back to Top--

close help window button

The table below displays all the data that has been submitted to Project BudBurst. By default, the data is sorted by the date on which the phenophase occurred. Clicking the up and down arrows next to each column name allows you to sort on any value. If there have been more than 10 observations submitted, you can choose how many to display at a time using the "Show __ entries" control. You can also page through the data using the previous and next buttons at the bottom right of the table.

The Search box allows you to search all of the data. Searching by date, species, phenophase, etc. is easy—just start typing and the table will immediately change to contain only observations that contain your search phrase. Do you want to see only 2012 observations? Just type "2012" in the search box. Only want to see maples? Enter "Acer." You can combine searches, too! Searching for "acer 2012" will narrow your results to only the maples that were observed in 2012 (assuming that any observations exist, of course).

Once you have your results in the order desired, you can use any of the buttons above the search box to copy the results to the clipboard; save them as a text, or spreadsheet; or even print them from your browser!

Observational data for Green ash:

help button
Date Contributor Common Name Species Phenophase Latitude Longitude Obs#
Sat Sep 17 00:00:00 GMT 2011 palaback Green ash Fraxinus pennsylvanica Leaves Changing Color (Early) 40.420800000000000 -105.084000000000000 13288
Wed Sep 21 00:00:00 GMT 2011 dnb23 Green ash Fraxinus pennsylvanica Leaves Changing Color (Middle) 42.480400000000000 -76.451200000000000 13327
Sun Sep 25 00:00:00 GMT 2011 kenmaskell Green ash Fraxinus pennsylvanica Leaves Changing Color (Early) 39.916200000000000 -74.784300000000000 13414
Mon Sep 26 00:00:00 GMT 2011 melia718 Green ash Fraxinus pennsylvanica Leaves Changing Color (Late) 39.999800000000000 -105.264000000000000 13437
Wed Sep 28 00:00:00 GMT 2011 cmeier47 Green ash Fraxinus pennsylvanica Leaves Changing Color (Early) 40.016000000000000 -105.246000000000000 13469
Mon Oct 03 00:00:00 GMT 2011 cralston Green ash Fraxinus pennsylvanica 50% Leaf Fall 47.923600000000000 -97.053800000000000 13493
Mon Oct 10 00:00:00 GMT 2011 palaback Green ash Fraxinus pennsylvanica Leaves Changing Color (Middle) 43.386200000000000 -72.082000000000000 13545
Tue Oct 11 00:00:00 GMT 2011 palaback Green ash Fraxinus pennsylvanica Leaves Changing Color (Late) 43.351200000000000 -72.040300000000000 13622
Thu Oct 13 00:00:00 GMT 2011 palaback Green ash Fraxinus pennsylvanica Leaves Changing Color (Middle) 43.363500000000000 -72.094500000000000 13680
Mon Oct 17 00:00:00 GMT 2011 palaback Green ash Fraxinus pennsylvanica Leaves Dropping (Early) 40.307500000000000 -90.000000000000000 13691
Sat Oct 22 00:00:00 GMT 2011 palaback Green ash Fraxinus pennsylvanica Leaves Changing Color (Late) 40.396000000000000 -105.102000000000000 13766
Wed Sep 12 00:00:00 GMT 2012 palaback Green ash Fraxinus pennsylvanica Leaves Changing Color (Early) 40.314900000000000 -105.091000000000000 16603
Sun Apr 07 00:00:00 GMT 2013 cmgilpin Green ash Fraxinus pennsylvanica Bud Burst 39.154700000000000 -86.572300000000000 18618
Wed Apr 10 00:00:00 GMT 2013 Mango55 Green ash Fraxinus pennsylvanica Bud Burst 40.208200000000000 -76.771900000000000 18782
Mon Apr 15 00:00:00 GMT 2013 Mango55 Green ash Fraxinus pennsylvanica First Flower 40.208200000000000 -76.771900000000000 18964
Wed Apr 17 00:00:00 GMT 2013 Mango55 Green ash Fraxinus pennsylvanica Full Flower 40.208200000000000 -76.771900000000000 18998
Wed Mar 20 00:00:00 GMT 2013 NHStudent Green ash Fraxinus pennsylvanica Leaves Unfolding (Early) 40.103900000000000 -105.171000000000000 19053
Thu Mar 21 00:00:00 GMT 2013 NHStudent Green ash Fraxinus pennsylvanica Leaves Unfolding (Early) 40.103900000000000 -105.171000000000000 19062
Thu Mar 21 00:00:00 GMT 2013 NHStudent Green ash Fraxinus pennsylvanica Leaves Unfolding (Early) 40.103900000000000 -105.171000000000000 19061
Sat Apr 20 00:00:00 GMT 2013 Mango55 Green ash Fraxinus pennsylvanica First Leaf 40.208200000000000 -76.771900000000000 19109
Wed May 01 00:00:00 GMT 2013 Mango55 Green ash Fraxinus pennsylvanica All Leaves Unfolded 40.208200000000000 -76.771900000000000 20011
Thu May 09 00:00:00 GMT 2013 MiddleburyBio140 Green ash Fraxinus pennsylvanica Leaves Unfolding (Late) 43.998100000000000 -73.174500000000000 20154
Fri May 10 00:00:00 GMT 2013 allib001 Green ash Fraxinus pennsylvanica First Flower 45.053700000000000 -92.812700000000000 20232
Fri May 17 00:00:00 GMT 2013 allib001 Green ash Fraxinus pennsylvanica All Leaves Unfolded 45.053700000000000 -92.812700000000000 20492
Sat Jun 22 00:00:00 GMT 2013 allib001 Green ash Fraxinus pennsylvanica First Ripe Fruit 45.053700000000000 -92.812700000000000 21422
Fri Sep 13 00:00:00 GMT 2013 Rogers Green ash Fraxinus pennsylvanica First Ripe Fruit 39.160800000000000 -86.505400000000000 22041
Tue Sep 24 00:00:00 GMT 2013 allib001 Green ash Fraxinus pennsylvanica 50% Color 45.053700000000000 -92.812700000000000 22338
Wed Oct 02 00:00:00 GMT 2013 allib001 Green ash Fraxinus pennsylvanica 50% Leaf Fall 45.053700000000000 -92.812700000000000 22339
Tue Oct 22 00:00:00 GMT 2013 robinv1_Washington_College_reporter24 Green ash Fraxinus pennsylvanica 50% Leaf Fall 39.219200000000000 -76.069600000000000 22826
Thu Oct 17 00:00:00 GMT 2013 robinv1_Washington_College_reporter24 Green ash Fraxinus pennsylvanica 50% Color 39.219200000000000 -76.069600000000000 22828
Sat Oct 12 00:00:00 GMT 2013 robinv1_Washington_College_reporter1 Green ash Fraxinus pennsylvanica 50% Leaf Fall 39.219200000000000 -76.069600000000000 22816
Fri Nov 08 00:00:00 GMT 2013 dancyn2005 Green ash Fraxinus pennsylvanica Leaves Changing Color (Late) 36.823100000000000 -84.945100000000000 23025
Mon Oct 07 00:00:00 GMT 2013 kashrews Green ash Fraxinus pennsylvanica 50% Color 39.152400000000000 -86.492000000000000 23192
Fri Oct 18 00:00:00 GMT 2013 kashrews Green ash Fraxinus pennsylvanica 50% Leaf Fall 39.152400000000000 -86.492000000000000 23193
Mon Nov 05 00:00:00 GMT 2012 robinv1_Washington_College_reporter1 Green ash Fraxinus pennsylvanica 50% Color 39.219200000000000 -76.069600000000000 24147
Mon Sep 30 00:00:00 GMT 2013 robinv1_Washington_College_reporter10 Green ash Fraxinus pennsylvanica 50% Color 39.219200000000000 -76.069600000000000 24235
Mon Oct 14 00:00:00 GMT 2013 robinv1_Washington_College_reporter10 Green ash Fraxinus pennsylvanica 50% Leaf Fall 39.219200000000000 -76.069600000000000 24236
Wed Oct 16 00:00:00 GMT 2013 robinv1_Washington_College_reporter20 Green ash Fraxinus pennsylvanica 50% Color 39.219200000000000 -76.069600000000000 24200
Mon Oct 21 00:00:00 GMT 2013 robinv1_Washington_College_reporter20 Green ash Fraxinus pennsylvanica 50% Leaf Fall 39.219200000000000 -76.069600000000000 24201
Mon Jan 04 00:00:00 GMT 2016 dennisw Green ash Fraxinus pennsylvanica Leaves Unfolding (None) 40.017018000000000 -105.246081000000000 61430
Mon Jan 04 00:00:00 GMT 2016 dennisw Green ash Fraxinus pennsylvanica Leaves Changing Color (None) 40.017018000000000 -105.246081000000000 61431
Mon Jan 04 00:00:00 GMT 2016 dennisw Green ash Fraxinus pennsylvanica Leaves Dropping (Late) 40.017018000000000 -105.246081000000000 61432
Mon Jan 04 00:00:00 GMT 2016 dennisw Green ash Fraxinus pennsylvanica Flowers (None) 40.017018000000000 -105.246081000000000 61433
Mon Jan 04 00:00:00 GMT 2016 dennisw Green ash Fraxinus pennsylvanica Fruit (None) 40.017018000000000 -105.246081000000000 61434
Mon Mar 14 00:00:00 GMT 2016 tcemleech Green ash Fraxinus pennsylvanica Bud Burst 39.308690000000000 -76.865240000000000 62493
Wed Mar 30 00:00:00 GMT 2016 Sommer Green ash Fraxinus pennsylvanica Bud Burst 39.165258000000000 -86.514256000000000 63827
Mon Apr 04 00:00:00 GMT 2016 Sommer Green ash Fraxinus pennsylvanica First Leaf 39.165258000000000 -86.514256000000000 63828
Tue Apr 12 00:00:00 GMT 2016 ochrestos Green ash Fraxinus pennsylvanica Leaves Unfolding (None) 38.835270000000000 -77.309480000000000 64561
Tue Apr 12 00:00:00 GMT 2016 ochrestos Green ash Fraxinus pennsylvanica Leaves Changing Color (None) 38.835270000000000 -77.309480000000000 64562
Tue Apr 12 00:00:00 GMT 2016 ochrestos Green ash Fraxinus pennsylvanica Leaves Dropping (Late) 38.835270000000000 -77.309480000000000 64563
Tue Apr 12 00:00:00 GMT 2016 ochrestos Green ash Fraxinus pennsylvanica Flowers (None) 38.835270000000000 -77.309480000000000 64564
Tue Apr 12 00:00:00 GMT 2016 ochrestos Green ash Fraxinus pennsylvanica Fruit (None) 38.835270000000000 -77.309480000000000 64565
Fri Apr 22 00:00:00 GMT 2016 allib001 Green ash Fraxinus pennsylvanica Bud Burst 45.053700000000000 -92.812700000000000 65099
Mon Apr 25 00:00:00 GMT 2016 katfadigan Green ash Fraxinus pennsylvanica Leaves Unfolding (Middle) 40.131380000000000 -75.137030000000000 65233
Mon Apr 25 00:00:00 GMT 2016 katfadigan Green ash Fraxinus pennsylvanica Leaves Changing Color (None) 40.131380000000000 -75.137030000000000 65234
Mon Apr 25 00:00:00 GMT 2016 katfadigan Green ash Fraxinus pennsylvanica Leaves Dropping (None) 40.131380000000000 -75.137030000000000 65235
Mon Apr 25 00:00:00 GMT 2016 katfadigan Green ash Fraxinus pennsylvanica Flowers (Late) 40.131380000000000 -75.137030000000000 65236
Mon Apr 25 00:00:00 GMT 2016 katfadigan Green ash Fraxinus pennsylvanica Fruit (None) 40.131380000000000 -75.137030000000000 65237
Thu Apr 28 00:00:00 GMT 2016 mrsfrey Green ash Fraxinus pennsylvanica Bud Burst 41.131790000000000 -73.521880000000000 65706
Thu Apr 28 00:00:00 GMT 2016 mrsfrey Green ash Fraxinus pennsylvanica First Leaf 41.131790000000000 -73.521880000000000 65707
Thu Apr 28 00:00:00 GMT 2016 springer Green ash Fraxinus pennsylvanica Leaves Unfolding (Middle) 40.000000000000000 -100.000000000000000 65848
Thu Apr 28 00:00:00 GMT 2016 springer Green ash Fraxinus pennsylvanica Leaves Changing Color (Early) 40.000000000000000 -100.000000000000000 65849
Thu Apr 28 00:00:00 GMT 2016 springer Green ash Fraxinus pennsylvanica Leaves Dropping (Middle) 40.000000000000000 -100.000000000000000 65850
Thu Apr 28 00:00:00 GMT 2016 springer Green ash Fraxinus pennsylvanica Flowers (Early) 40.000000000000000 -100.000000000000000 65851
Thu Apr 28 00:00:00 GMT 2016 springer Green ash Fraxinus pennsylvanica Fruit (None) 40.000000000000000 -100.000000000000000 65852
Sat Apr 30 00:00:00 GMT 2016 OtterPoint_Otter_Point_Creek_reporter8 Green ash Fraxinus pennsylvanica All Leaves Unfolded 39.449290000000000 -76.277282000000000 66043
Tue May 03 00:00:00 GMT 2016 allib001 Green ash Fraxinus pennsylvanica First Leaf 45.053700000000000 -92.812700000000000 66143
Mon May 02 00:00:00 GMT 2016 allib001 Green ash Fraxinus pennsylvanica First Flower 45.053700000000000 -92.812700000000000 66144
Sat May 07 00:00:00 GMT 2016 OtterPoint_Otter_Point_Creek_reporter7 Green ash Fraxinus pennsylvanica All Leaves Unfolded 39.449290000000000 -76.277282000000000 66489
Sun May 08 00:00:00 GMT 2016 juliannaglick Green ash Fraxinus pennsylvanica Leaves Unfolding (None) 41.222974000000000 -73.158562000000000 66525
Sun May 08 00:00:00 GMT 2016 juliannaglick Green ash Fraxinus pennsylvanica Leaves Changing Color (None) 41.222974000000000 -73.158562000000000 66526
Sun May 08 00:00:00 GMT 2016 juliannaglick Green ash Fraxinus pennsylvanica Leaves Dropping (None) 41.222974000000000 -73.158562000000000 66527
Sun May 08 00:00:00 GMT 2016 juliannaglick Green ash Fraxinus pennsylvanica Flowers (None) 41.222974000000000 -73.158562000000000 66528
Sun May 08 00:00:00 GMT 2016 juliannaglick Green ash Fraxinus pennsylvanica Fruit (None) 41.222974000000000 -73.158562000000000 66529
Mon May 09 00:00:00 GMT 2016 mrsfrey Green ash Fraxinus pennsylvanica All Leaves Unfolded 41.131790000000000 -73.521880000000000 66549
Mon May 09 00:00:00 GMT 2016 juliannaglick Green ash Fraxinus pennsylvanica Leaves Unfolding (Early) 41.223160000000000 -73.158820000000000 66582
Mon May 09 00:00:00 GMT 2016 juliannaglick Green ash Fraxinus pennsylvanica Leaves Changing Color (None) 41.223160000000000 -73.158820000000000 66583
Mon May 09 00:00:00 GMT 2016 juliannaglick Green ash Fraxinus pennsylvanica Leaves Dropping (None) 41.223160000000000 -73.158820000000000 66584
Mon May 09 00:00:00 GMT 2016 juliannaglick Green ash Fraxinus pennsylvanica Flowers (None) 41.223160000000000 -73.158820000000000 66585
Mon May 09 00:00:00 GMT 2016 juliannaglick Green ash Fraxinus pennsylvanica Fruit (None) 41.223160000000000 -73.158820000000000 66586
Mon May 09 00:00:00 GMT 2016 allib001 Green ash Fraxinus pennsylvanica All Leaves Unfolded 45.053700000000000 -92.812700000000000 66596
Tue Apr 26 00:00:00 GMT 2016 Bio127 Green ash Fraxinus pennsylvanica Bud Burst 45.057940000000000 -93.161610000000000 66654
Fri Apr 08 00:00:00 GMT 2016 Bio127 Green ash Fraxinus pennsylvanica Bud Burst 45.057940000000000 -93.161610000000000 66686
Tue Apr 19 00:00:00 GMT 2016 Bio127 Green ash Fraxinus pennsylvanica First Leaf 45.057940000000000 -93.161610000000000 66687
Tue Apr 26 00:00:00 GMT 2016 Bio127 Green ash Fraxinus pennsylvanica First Leaf 45.057940000000000 -93.161610000000000 66688
Tue May 03 00:00:00 GMT 2016 Bio127 Green ash Fraxinus pennsylvanica All Leaves Unfolded 45.057940000000000 -93.161610000000000 66694
Tue Apr 19 00:00:00 GMT 2016 Bio127 Green ash Fraxinus pennsylvanica Bud Burst 45.054300000000000 -93.161770000000000 66695
Tue Apr 26 00:00:00 GMT 2016 Bio127 Green ash Fraxinus pennsylvanica First Leaf 45.054300000000000 -93.161770000000000 66696
Tue May 10 00:00:00 GMT 2016 juliannaglick Green ash Fraxinus pennsylvanica Leaves Unfolding (Early) 41.223160000000000 -73.158820000000000 66722
Tue May 10 00:00:00 GMT 2016 juliannaglick Green ash Fraxinus pennsylvanica Leaves Changing Color (None) 41.223160000000000 -73.158820000000000 66723
Tue May 10 00:00:00 GMT 2016 juliannaglick Green ash Fraxinus pennsylvanica Leaves Dropping (None) 41.223160000000000 -73.158820000000000 66724
Tue May 10 00:00:00 GMT 2016 juliannaglick Green ash Fraxinus pennsylvanica Flowers (None) 41.223160000000000 -73.158820000000000 66725
Tue May 10 00:00:00 GMT 2016 juliannaglick Green ash Fraxinus pennsylvanica Fruit (None) 41.223160000000000 -73.158820000000000 66726
Sat May 14 00:00:00 GMT 2016 juliannaglick Green ash Fraxinus pennsylvanica Leaves Unfolding (Early) 41.223160000000000 -73.158820000000000 67132
Sat May 14 00:00:00 GMT 2016 juliannaglick Green ash Fraxinus pennsylvanica Leaves Changing Color (None) 41.223160000000000 -73.158820000000000 67133
Sat May 14 00:00:00 GMT 2016 juliannaglick Green ash Fraxinus pennsylvanica Leaves Dropping (None) 41.223160000000000 -73.158820000000000 67134
Sat May 14 00:00:00 GMT 2016 juliannaglick Green ash Fraxinus pennsylvanica Flowers (None) 41.223160000000000 -73.158820000000000 67135
Sat May 14 00:00:00 GMT 2016 juliannaglick Green ash Fraxinus pennsylvanica Fruit (None) 41.223160000000000 -73.158820000000000 67136
Sat Oct 31 00:00:00 GMT 2015 juliannaglick Green ash Fraxinus pennsylvanica Leaves Unfolding (None) 41.223160000000000 -73.158820000000000 67227
Sat Oct 31 00:00:00 GMT 2015 juliannaglick Green ash Fraxinus pennsylvanica Leaves Changing Color (None) 41.223160000000000 -73.158820000000000 67228
Sat Oct 31 00:00:00 GMT 2015 juliannaglick Green ash Fraxinus pennsylvanica Leaves Dropping (Middle) 41.223160000000000 -73.158820000000000 67229
Sat Oct 31 00:00:00 GMT 2015 juliannaglick Green ash Fraxinus pennsylvanica Flowers (None) 41.223160000000000 -73.158820000000000 67230
Sat Oct 31 00:00:00 GMT 2015 juliannaglick Green ash Fraxinus pennsylvanica Fruit (None) 41.223160000000000 -73.158820000000000 67231
Wed Nov 11 00:00:00 GMT 2015 juliannaglick Green ash Fraxinus pennsylvanica Leaves Unfolding (None) 41.223160000000000 -73.158820000000000 67232
Wed Nov 11 00:00:00 GMT 2015 juliannaglick Green ash Fraxinus pennsylvanica Leaves Changing Color (None) 41.223160000000000 -73.158820000000000 67233
Wed Nov 11 00:00:00 GMT 2015 juliannaglick Green ash Fraxinus pennsylvanica Leaves Dropping (Late) 41.223160000000000 -73.158820000000000 67234
Wed Nov 11 00:00:00 GMT 2015 juliannaglick Green ash Fraxinus pennsylvanica Flowers (None) 41.223160000000000 -73.158820000000000 67235
Wed Nov 11 00:00:00 GMT 2015 juliannaglick Green ash Fraxinus pennsylvanica Fruit (None) 41.223160000000000 -73.158820000000000 67236
Tue May 17 00:00:00 GMT 2016 juliannaglick Green ash Fraxinus pennsylvanica Leaves Unfolding (Middle) 41.223160000000000 -73.158820000000000 67237
Tue May 17 00:00:00 GMT 2016 juliannaglick Green ash Fraxinus pennsylvanica Leaves Changing Color (None) 41.223160000000000 -73.158820000000000 67238
Tue May 17 00:00:00 GMT 2016 juliannaglick Green ash Fraxinus pennsylvanica Leaves Dropping (None) 41.223160000000000 -73.158820000000000 67239
Tue May 17 00:00:00 GMT 2016 juliannaglick Green ash Fraxinus pennsylvanica Flowers (None) 41.223160000000000 -73.158820000000000 67240
Tue May 17 00:00:00 GMT 2016 juliannaglick Green ash Fraxinus pennsylvanica Fruit (None) 41.223160000000000 -73.158820000000000 67241
Fri May 20 00:00:00 GMT 2016 OtterPoint_Otter_Point_Creek_reporter9 Green ash Fraxinus pennsylvanica All Leaves Unfolded 39.449290000000000 -76.277282000000000 67653
Sun Jul 10 00:00:00 GMT 2016 OtterPoint_Otter_Point_Creek_reporter10 Green ash Fraxinus pennsylvanica All Leaves Unfolded 39.449290000000000 -76.277282000000000 68756
Wed Sep 07 00:00:00 GMT 2016 vdoan Green ash Fraxinus pennsylvanica Bud Burst 38.916750000000000 -77.521140000000000 69798
Mon Sep 12 00:00:00 GMT 2016 vdoan Green ash Fraxinus pennsylvanica All Leaves Unfolded 38.916750000000000 -77.521140000000000 69799
Mon Oct 10 00:00:00 GMT 2016 mrsfrey Green ash Fraxinus pennsylvanica 50% Color 41.131790000000000 -73.521880000000000 70855
Tue Oct 18 00:00:00 GMT 2016 OtterPoint_Otter_Point_Creek_reporter9 Green ash Fraxinus pennsylvanica 50% Leaf Fall 39.449290000000000 -76.277282000000000 70969
Mon Oct 17 00:00:00 GMT 2016 mrsfrey Green ash Fraxinus pennsylvanica 50% Leaf Fall 41.131790000000000 -73.521880000000000 70984
Thu Sep 29 00:00:00 GMT 2016 adipinto Green ash Fraxinus pennsylvanica Leaves Unfolding (Late) 42.283080000000000 -87.953130000000000 71176
Thu Sep 29 00:00:00 GMT 2016 adipinto Green ash Fraxinus pennsylvanica Leaves Changing Color (Early) 42.283080000000000 -87.953130000000000 71177
Thu Sep 29 00:00:00 GMT 2016 adipinto Green ash Fraxinus pennsylvanica Leaves Dropping (Early) 42.283080000000000 -87.953130000000000 71178
Thu Sep 29 00:00:00 GMT 2016 adipinto Green ash Fraxinus pennsylvanica Flowers (None) 42.283080000000000 -87.953130000000000 71179
Thu Sep 29 00:00:00 GMT 2016 adipinto Green ash Fraxinus pennsylvanica Fruit (None) 42.283080000000000 -87.953130000000000 71180
Tue Oct 04 00:00:00 GMT 2016 adipinto Green ash Fraxinus pennsylvanica Leaves Unfolding (Late) 42.283080000000000 -87.953130000000000 71181
Tue Oct 04 00:00:00 GMT 2016 adipinto Green ash Fraxinus pennsylvanica Leaves Changing Color (Early) 42.283080000000000 -87.953130000000000 71182
Tue Oct 04 00:00:00 GMT 2016 adipinto Green ash Fraxinus pennsylvanica Leaves Dropping (Early) 42.283080000000000 -87.953130000000000 71183
Tue Oct 04 00:00:00 GMT 2016 adipinto Green ash Fraxinus pennsylvanica Flowers (None) 42.283080000000000 -87.953130000000000 71184
Tue Oct 04 00:00:00 GMT 2016 adipinto Green ash Fraxinus pennsylvanica Fruit (None) 42.283080000000000 -87.953130000000000 71185
Tue Oct 25 00:00:00 GMT 2016 adipinto Green ash Fraxinus pennsylvanica Leaves Unfolding (Late) 42.283080000000000 -87.953130000000000 71186
Tue Oct 25 00:00:00 GMT 2016 adipinto Green ash Fraxinus pennsylvanica Leaves Changing Color (Middle) 42.283080000000000 -87.953130000000000 71187
Tue Oct 25 00:00:00 GMT 2016 adipinto Green ash Fraxinus pennsylvanica Leaves Dropping (Middle) 42.283080000000000 -87.953130000000000 71188
Tue Oct 25 00:00:00 GMT 2016 adipinto Green ash Fraxinus pennsylvanica Flowers (None) 42.283080000000000 -87.953130000000000 71189
Tue Oct 25 00:00:00 GMT 2016 adipinto Green ash Fraxinus pennsylvanica Fruit (None) 42.283080000000000 -87.953130000000000 71190
Fri Oct 14 00:00:00 GMT 2016 adipinto Green ash Fraxinus pennsylvanica Leaves Unfolding (Late) 42.283080000000000 -87.953130000000000 71191
Fri Oct 14 00:00:00 GMT 2016 adipinto Green ash Fraxinus pennsylvanica Leaves Changing Color (Middle) 42.283080000000000 -87.953130000000000 71192
Fri Oct 14 00:00:00 GMT 2016 adipinto Green ash Fraxinus pennsylvanica Leaves Dropping (Middle) 42.283080000000000 -87.953130000000000 71193
Fri Oct 14 00:00:00 GMT 2016 adipinto Green ash Fraxinus pennsylvanica Flowers (None) 42.283080000000000 -87.953130000000000 71194
Fri Oct 14 00:00:00 GMT 2016 adipinto Green ash Fraxinus pennsylvanica Fruit (None) 42.283080000000000 -87.953130000000000 71195
Wed Oct 19 00:00:00 GMT 2016 adipinto Green ash Fraxinus pennsylvanica Leaves Unfolding (Late) 42.283080000000000 -87.953130000000000 71196
Wed Oct 19 00:00:00 GMT 2016 adipinto Green ash Fraxinus pennsylvanica Leaves Changing Color (Late) 42.283080000000000 -87.953130000000000 71197
Wed Oct 19 00:00:00 GMT 2016 adipinto Green ash Fraxinus pennsylvanica Leaves Dropping (Middle) 42.283080000000000 -87.953130000000000 71198
Wed Oct 19 00:00:00 GMT 2016 adipinto Green ash Fraxinus pennsylvanica Flowers (None) 42.283080000000000 -87.953130000000000 71199
Wed Oct 19 00:00:00 GMT 2016 adipinto Green ash Fraxinus pennsylvanica Fruit (None) 42.283080000000000 -87.953130000000000 71200
Mon Oct 24 00:00:00 GMT 2016 adipinto Green ash Fraxinus pennsylvanica Leaves Unfolding (Late) 42.283080000000000 -87.953130000000000 71201
Mon Oct 24 00:00:00 GMT 2016 adipinto Green ash Fraxinus pennsylvanica Leaves Changing Color (Late) 42.283080000000000 -87.953130000000000 71202
Mon Oct 24 00:00:00 GMT 2016 adipinto Green ash Fraxinus pennsylvanica Leaves Dropping (Late) 42.283080000000000 -87.953130000000000 71203
Mon Oct 24 00:00:00 GMT 2016 adipinto Green ash Fraxinus pennsylvanica Flowers (None) 42.283080000000000 -87.953130000000000 71204
Mon Oct 24 00:00:00 GMT 2016 adipinto Green ash Fraxinus pennsylvanica Fruit (None) 42.283080000000000 -87.953130000000000 71205
Sun Oct 09 00:00:00 GMT 2016 adipinto Green ash Fraxinus pennsylvanica Leaves Unfolding (Late) 42.283080000000000 -87.953130000000000 71206
Sun Oct 09 00:00:00 GMT 2016 adipinto Green ash Fraxinus pennsylvanica Leaves Changing Color (Early) 42.283080000000000 -87.953130000000000 71207
Sun Oct 09 00:00:00 GMT 2016 adipinto Green ash Fraxinus pennsylvanica Leaves Dropping (Early) 42.283080000000000 -87.953130000000000 71208
Sun Oct 09 00:00:00 GMT 2016 adipinto Green ash Fraxinus pennsylvanica Flowers (None) 42.283080000000000 -87.953130000000000 71209
Sun Oct 09 00:00:00 GMT 2016 adipinto Green ash Fraxinus pennsylvanica Fruit (None) 42.283080000000000 -87.953130000000000 71210
Fri Oct 14 00:00:00 GMT 2016 elen2 Green ash Fraxinus pennsylvanica Bud Burst 38.988535000000000 -94.813857000000000 71551
Fri Oct 14 00:00:00 GMT 2016 elen2 Green ash Fraxinus pennsylvanica 50% Leaf Fall 38.988535000000000 -94.813857000000000 71552
Thu Oct 27 00:00:00 GMT 2016 owarnick Green ash Fraxinus pennsylvanica 50% Color 39.165300000000000 -86.526400000000000 73228
Tue Nov 01 00:00:00 GMT 2016 owarnick Green ash Fraxinus pennsylvanica 50% Leaf Fall 39.165300000000000 -86.526400000000000 73229
Wed Oct 05 00:00:00 GMT 2016 amcgeary Green ash Fraxinus pennsylvanica Leaves Unfolding (Late) 39.166168000000000 -86.513810000000000 73262
Wed Oct 05 00:00:00 GMT 2016 amcgeary Green ash Fraxinus pennsylvanica Leaves Changing Color (Middle) 39.166168000000000 -86.513810000000000 73263
Wed Oct 05 00:00:00 GMT 2016 amcgeary Green ash Fraxinus pennsylvanica Leaves Dropping (None) 39.166168000000000 -86.513810000000000 73264
Wed Oct 05 00:00:00 GMT 2016 amcgeary Green ash Fraxinus pennsylvanica Flowers (None) 39.166168000000000 -86.513810000000000 73265
Wed Oct 05 00:00:00 GMT 2016 amcgeary Green ash Fraxinus pennsylvanica Fruit (None) 39.166168000000000 -86.513810000000000 73266
Wed Oct 26 00:00:00 GMT 2016 amcgeary Green ash Fraxinus pennsylvanica Leaves Unfolding (Late) 39.166168000000000 -86.513810000000000 73269
Wed Oct 26 00:00:00 GMT 2016 amcgeary Green ash Fraxinus pennsylvanica Leaves Changing Color (Late) 39.166168000000000 -86.513810000000000 73270
Wed Oct 26 00:00:00 GMT 2016 amcgeary Green ash Fraxinus pennsylvanica Leaves Dropping (Middle) 39.166168000000000 -86.513810000000000 73271
Wed Oct 26 00:00:00 GMT 2016 amcgeary Green ash Fraxinus pennsylvanica Flowers (None) 39.166168000000000 -86.513810000000000 73272
Wed Oct 26 00:00:00 GMT 2016 amcgeary Green ash Fraxinus pennsylvanica Fruit (None) 39.166168000000000 -86.513810000000000 73273
Wed Oct 05 00:00:00 GMT 2016 amcgeary Green ash Fraxinus pennsylvanica 50% Color 39.166143000000000 -86.513799000000000 73302
Wed Oct 26 00:00:00 GMT 2016 amcgeary Green ash Fraxinus pennsylvanica 50% Leaf Fall 39.166143000000000 -86.513799000000000 73303
Wed Oct 12 00:00:00 GMT 2016 allib001 Green ash Fraxinus pennsylvanica 50% Color 45.053700000000000 -92.812700000000000 74082
Sun Oct 16 00:00:00 GMT 2016 allib001 Green ash Fraxinus pennsylvanica 50% Leaf Fall 45.053700000000000 -92.812700000000000 74083
Tue Jan 24 00:00:00 GMT 2017 espear Green ash Fraxinus pennsylvanica Leaves Unfolding (None) 39.786090000000000 -105.035470000000000 74504
Tue Jan 24 00:00:00 GMT 2017 espear Green ash Fraxinus pennsylvanica Leaves Changing Color (None) 39.786090000000000 -105.035470000000000 74505
Tue Jan 24 00:00:00 GMT 2017 espear Green ash Fraxinus pennsylvanica Leaves Dropping (Late) 39.786090000000000 -105.035470000000000 74506
Tue Jan 24 00:00:00 GMT 2017 espear Green ash Fraxinus pennsylvanica Flowers (None) 39.786090000000000 -105.035470000000000 74507
Tue Jan 24 00:00:00 GMT 2017 espear Green ash Fraxinus pennsylvanica Fruit (Late) 39.786090000000000 -105.035470000000000 74508
Sun Mar 19 00:00:00 GMT 2017 espear Green ash Fraxinus pennsylvanica Leaves Unfolding (None) 39.786090000000000 -105.035470000000000 75683
Sun Mar 19 00:00:00 GMT 2017 espear Green ash Fraxinus pennsylvanica Leaves Changing Color (None) 39.786090000000000 -105.035470000000000 75684
Sun Mar 19 00:00:00 GMT 2017 espear Green ash Fraxinus pennsylvanica Leaves Dropping (None) 39.786090000000000 -105.035470000000000 75685
Sun Mar 19 00:00:00 GMT 2017 espear Green ash Fraxinus pennsylvanica Flowers (None) 39.786090000000000 -105.035470000000000 75686
Sun Mar 19 00:00:00 GMT 2017 espear Green ash Fraxinus pennsylvanica Fruit (None) 39.786090000000000 -105.035470000000000 75687
Mon Mar 20 00:00:00 GMT 2017 allib001 Green ash Fraxinus pennsylvanica Bud Burst 45.053700000000000 -92.812700000000000 76372
Tue Mar 28 00:00:00 GMT 2017 stczarne Green ash Fraxinus pennsylvanica Bud Burst 39.167739000000000 -86.516028000000000 77053
Fri Mar 31 00:00:00 GMT 2017 stczarne Green ash Fraxinus pennsylvanica Bud Burst 39.175703000000000 -86.529254000000000 77069
Mon Apr 03 00:00:00 GMT 2017 stczarne Green ash Fraxinus pennsylvanica First Flower 39.175703000000000 -86.529254000000000 77105
Thu Feb 23 00:00:00 GMT 2017 silverygold9 Green ash Fraxinus pennsylvanica Bud Burst 39.169115000000000 -86.513708000000000 77117
Mon Apr 10 00:00:00 GMT 2017 Scutacarus1964 Green ash Fraxinus pennsylvanica Bud Burst 39.393920000000000 -101.063520000000000 77432
Wed Apr 12 00:00:00 GMT 2017 elen2 Green ash Fraxinus pennsylvanica Bud Burst 38.988535000000000 -94.813857000000000 77973
Wed Apr 12 00:00:00 GMT 2017 elen2 Green ash Fraxinus pennsylvanica First Flower 38.988535000000000 -94.813857000000000 77974
Mon Apr 10 00:00:00 GMT 2017 Scutacarus1964 Green ash Fraxinus pennsylvanica Bud Burst 39.398760000000000 -101.029760000000000 77983
Thu Apr 13 00:00:00 GMT 2017 Scutacarus1964 Green ash Fraxinus pennsylvanica First Flower 39.398760000000000 -101.029760000000000 77984
Sun Apr 16 00:00:00 GMT 2017 Scutacarus1964 Green ash Fraxinus pennsylvanica Full Flower 39.398760000000000 -101.029760000000000 78116
Tue Apr 18 00:00:00 GMT 2017 Scutacarus1964 Green ash Fraxinus pennsylvanica First Leaf 39.393920000000000 -101.063520000000000 79365
Sat Apr 15 00:00:00 GMT 2017 elen2 Green ash Fraxinus pennsylvanica First Leaf 38.988535000000000 -94.813857000000000 79791
Fri Apr 28 00:00:00 GMT 2017 espear Green ash Fraxinus pennsylvanica Leaves Unfolding (Late) 39.786090000000000 -105.035470000000000 80504
Fri Apr 28 00:00:00 GMT 2017 espear Green ash Fraxinus pennsylvanica Leaves Changing Color (None) 39.786090000000000 -105.035470000000000 80505
Fri Apr 28 00:00:00 GMT 2017 espear Green ash Fraxinus pennsylvanica Leaves Dropping (None) 39.786090000000000 -105.035470000000000 80506
Fri Apr 28 00:00:00 GMT 2017 espear Green ash Fraxinus pennsylvanica Flowers (Late) 39.786090000000000 -105.035470000000000 80507
Fri Apr 28 00:00:00 GMT 2017 espear Green ash Fraxinus pennsylvanica Fruit (None) 39.786090000000000 -105.035470000000000 80508
Sat Apr 15 00:00:00 GMT 2017 Scutacarus1964 Green ash Fraxinus pennsylvanica First Leaf 39.398760000000000 -101.029760000000000 82178
Thu Apr 20 00:00:00 GMT 2017 Scutacarus1964 Green ash Fraxinus pennsylvanica All Leaves Unfolded 39.398760000000000 -101.029760000000000 82179
Sun May 07 00:00:00 GMT 2017 allib001 Green ash Fraxinus pennsylvanica First Leaf 45.053700000000000 -92.812700000000000 83834
Sun May 14 00:00:00 GMT 2017 allib001 Green ash Fraxinus pennsylvanica All Leaves Unfolded 45.053700000000000 -92.812700000000000 83835
Sun Apr 16 00:00:00 GMT 2017 kateoconn Green ash Fraxinus pennsylvanica Bud Burst 37.448230000000000 -122.131100000000000 84446
Mon Apr 17 00:00:00 GMT 2017 kateoconn Green ash Fraxinus pennsylvanica First Leaf 37.448230000000000 -122.131100000000000 84447
Fri Apr 21 00:00:00 GMT 2017 kateoconn Green ash Fraxinus pennsylvanica All Leaves Unfolded 37.448230000000000 -122.131100000000000 84448
Sat Apr 22 00:00:00 GMT 2017 kateoconn Green ash Fraxinus pennsylvanica First Flower 37.448230000000000 -122.131100000000000 84449
Tue Apr 25 00:00:00 GMT 2017 kateoconn Green ash Fraxinus pennsylvanica Full Flower 37.448230000000000 -122.131100000000000 84450
Sun Apr 30 00:00:00 GMT 2017 kateoconn Green ash Fraxinus pennsylvanica 50% Color 37.448230000000000 -122.131100000000000 84451
Wed Dec 21 00:00:00 GMT 2016 kateoconn Green ash Fraxinus pennsylvanica 50% Leaf Fall 37.448230000000000 -122.131100000000000 84452
Sun May 21 00:00:00 GMT 2017 OtterPoint_Otter_Point_Creek_reporter9 Green ash Fraxinus pennsylvanica Bud Burst 39.449290000000000 -76.277282000000000 85251
Sun May 21 00:00:00 GMT 2017 OtterPoint_Otter_Point_Creek_reporter9 Green ash Fraxinus pennsylvanica All Leaves Unfolded 39.449290000000000 -76.277282000000000 85252
Fri May 05 00:00:00 GMT 2017 Lionsgate_LGAGCD_reporter7 Green ash Fraxinus pennsylvanica First Leaf 44.900840000000000 -93.408140000000000 85481
Fri May 19 00:00:00 GMT 2017 Lionsgate_LGAGCD_reporter7 Green ash Fraxinus pennsylvanica All Leaves Unfolded 44.900840000000000 -93.408140000000000 85482
Fri Apr 14 00:00:00 GMT 2017 Lionsgate_LGAGCD_reporter15 Green ash Fraxinus pennsylvanica All Leaves Unfolded 44.900840000000000 -93.408140000000000 85606
Wed May 10 00:00:00 GMT 2017 Scutacarus1964 Green ash Fraxinus pennsylvanica First Ripe Fruit 39.398760000000000 -101.029760000000000 85637
Tue May 16 00:00:00 GMT 2017 Scutacarus1964 Green ash Fraxinus pennsylvanica Full Fruiting 39.398760000000000 -101.029760000000000 85638
Sat Jun 10 00:00:00 GMT 2017 allib001 Green ash Fraxinus pennsylvanica First Ripe Fruit 45.053700000000000 -92.812700000000000 86203
Sat Jul 08 00:00:00 GMT 2017 OtterPoint Green ash Fraxinus pennsylvanica Full Fruiting 39.449290000000000 -76.277282000000000 86705
Sun Jul 16 00:00:00 GMT 2017 allib001 Green ash Fraxinus pennsylvanica Full Fruiting 45.053700000000000 -92.812700000000000 86965

*All downloadable materials require the free Adobe Reader.